Location: Härggis
(46.9540°N, 8.4897°E)
Time: 22:27:01
(UTC+00:00)

COSMOS 2455 - Pass Details

Date: 27 May 2022
Orbit: 901 x 908 km, 67.1° (Epoch: 04 July)

Event Time Altitude Azimuth Distance (km) Brightness Sun altitude
Exits shadow 02:08:47 16° 220° (SW) 2,154 4.1 -12.2°
Maximum altitude 02:13:36 75° 304° (NW) 940 2.9 -11.7°
Drops below altitude 10° 02:19:40 10° 31° (NNE) 2,601 6.7 -11.0°
Sets 02:22:11 0° 33° (NNE) 3,546 8.0 -10.8°
